TimeMST,TemperatureF,Dew PointF,Humidity,Sea Level PressureIn,VisibilityMPH,Wind Direction,Wind SpeedMPH,Gust SpeedMPH,PrecipitationIn,Events,Conditions,WindDirDegrees,DateUTC
12:55 AM,1.9,-0.9,88,30.41,10.0,North,8.1,-,N/A,,Clear,10,2013-01-06 07:55:00
1:55 AM,1.9,-2.0,83,30.41,10.0,North,6.9,-,N/A,,Clear,360,2013-01-06 08:55:00
2:55 AM,1.0,-2.0,87,30.40,10.0,North,10.4,-,N/A,,Clear,350,2013-01-06 09:55:00
3:55 AM,-2.0,-5.1,87,30.40,10.0,Calm,Calm,-,N/A,,Clear,0,2013-01-06 10:55:00
5:55 AM,-5.1,-9.0,83,30.47,10.0,North,4.6,-,N/A,,Clear,10,2013-01-06 12:55:00
6:55 AM,-5.1,-8.0,87,30.46,10.0,North,6.9,-,N/A,,Clear,360,2013-01-06 13:55:00
7:55 AM,1.9,-2.0,83,30.46,10.0,North,5.8,-,N/A,,Clear,10,2013-01-06 14:55:00
8:55 AM,19.9,14.0,78,30.36,10.0,Calm,Calm,-,N/A,,Clear,0,2013-01-06 15:55:00
9:55 AM,28.0,15.1,58,30.37,10.0,ESE,6.9,-,N/A,,Clear,120,2013-01-06 16:55:00
10:55 AM,37.0,17.1,44,30.29,10.0,South,13.8,-,N/A,,Clear,170,2013-01-06 17:55:00
11:55 AM,41.0,15.1,35,30.23,10.0,South,13.8,-,N/A,,Clear,180,2013-01-06 18:55:00
12:55 PM,43.0,14.0,31,30.18,10.0,South,15.0,-,N/A,,Clear,170,2013-01-06 19:55:00
1:55 PM,45.0,14.0,29,30.14,10.0,South,10.4,-,N/A,,Clear,170,2013-01-06 20:55:00
2:55 PM,44.1,12.9,28,30.12,10.0,South,15.0,-,N/A,,Clear,170,2013-01-06 21:55:00
3:55 PM,39.9,14.0,35,30.13,10.0,South,15.0,-,N/A,,Clear,170,2013-01-06 22:55:00
4:55 PM,33.1,12.9,43,30.16,10.0,SSW,3.5,-,N/A,,Clear,210,2013-01-06 23:55:00
5:55 PM,23.0,12.0,63,30.21,10.0,SE,4.6,-,N/A,,Clear,130,2013-01-07 00:55:00
6:55 PM,16.0,10.0,77,30.22,10.0,Calm,Calm,-,N/A,,Clear,0,2013-01-07 01:55:00
8:55 PM,16.0,10.0,77,30.09,10.0,North,9.2,-,N/A,,Clear,360,2013-01-07 03:55:00
9:55 PM,17.1,10.0,74,30.04,10.0,North,8.1,-,N/A,,Clear,360,2013-01-07 04:55:00
10:55 PM,19.0,10.9,71,29.99,10.0,NNW,9.2,-,N/A,,Clear,340,2013-01-07 05:55:00
11:55 PM,21.0,12.0,68,29.96,10.0,North,5.8,-,N/A,,Clear,360,2013-01-07 06:55:00